Weather History for Elbow Lake, MN

Change the Weather History Date:

Wednesday, November 21, 2012

  Actual Average (KFFM) Record (KFFM)
Temperature  
Mean Temperature 46 °F -  
Max Temperature 59 °F 32 °F 60 °F (2012)
Min Temperature 32 °F 18 °F -9 °F (1985)
Degree Days  
Heating Degree Days 20    
Moisture  
Dew Point 33 °F    
Average Humidity 69    
Maximum Humidity 93    
Minimum Humidity 42    
Precipitation  
Precipitation 0.00 in - - ()
Sea Level Pressure  
Sea Level Pressure 29.78 in    
Wind  
Wind Speed 9 mph (SE)    
Max Wind Speed 16 mph    
Max Gust Speed 18 mph    
Visibility 10 miles    
Events      
Averages and records for this station are not official NWS values.
T = Trace of Precipitation, MM = Missing Value Source: NWS Daily Summary

Daily Weather History Graph

Daily Weather History Graph

Search for Another Location

Airport:

Trip Planner

Search our weather history database for the weather conditions in past years. The results will help you decide how hot, cold, wet, or windy it might be!

Date:

Astronomy

Nov. 21, 2012 Rise Set
Actual Time 7:33 AM CST 4:46 PM CST
Civil Twilight 7:00 AM CST 5:19 PM CST
Nautical Twilight 6:23 AM CST 5:55 PM CST
Astronomical Twilight 5:48 AM CST 6:31 PM CST
Moon 1:21 PM CST (11/21) 12:33 AM CST (11/21)
Length of Visible Light 10h 18m
Length of Day
9h 12m
First Quarter, 62% of the Moon is Illuminated
Nov 21
First Quarter
Nov 28
Full
Dec 6
Last Quarter
Dec 13
New
Dec 19
First Quarter

Hourly Weather History & Observations

Time (CST) Temp. Windchill Dew Point Humidity Pressure Visibility Wind Dir Wind Speed Gust Speed Precip Events Conditions
12:15 AM 37.4 °F 29.8 °F 30.2 °F 75% 29.91 in 10.0 mi SSE 11.5 mph - N/A   Clear
12:35 AM 37.4 °F 30.3 °F 30.2 °F 75% 29.91 in 10.0 mi SE 10.4 mph - N/A   Clear
12:55 AM 37.4 °F 30.8 °F 30.2 °F 75% 29.90 in 10.0 mi SE 9.2 mph - N/A   Clear
1:15 AM 37.4 °F 30.8 °F 30.2 °F 75% 29.90 in 10.0 mi SSE 9.2 mph - N/A   Clear
1:35 AM 37.4 °F 31.4 °F 30.2 °F 75% 29.89 in 10.0 mi SE 8.1 mph - N/A   Clear
1:55 AM 37.4 °F 32.1 °F 30.2 °F 75% 29.90 in 10.0 mi SE 6.9 mph - N/A   Clear
2:15 AM 35.6 °F 29.9 °F 30.2 °F 81% 29.89 in 10.0 mi SE 6.9 mph - N/A   Clear
2:35 AM 35.6 °F 30.7 °F 30.2 °F 81% 29.90 in 10.0 mi SSE 5.8 mph - N/A   Clear
2:55 AM 33.8 °F 28.6 °F 30.2 °F 87% 29.90 in 10.0 mi SE 5.8 mph - N/A   Clear
3:35 AM 33.8 °F 27.7 °F 30.2 °F 87% 29.89 in 10.0 mi SSE 6.9 mph - N/A   Clear
3:55 AM 33.8 °F 27.7 °F 30.2 °F 87% 29.89 in 10.0 mi SE 6.9 mph - N/A   Clear
4:15 AM 33.8 °F 28.6 °F 30.2 °F 87% 29.88 in 10.0 mi SE 5.8 mph - N/A   Clear
4:35 AM 33.8 °F 28.6 °F 30.2 °F 87% 29.89 in 10.0 mi SSE 5.8 mph - N/A   Clear
5:15 AM 33.8 °F 27.7 °F 30.2 °F 87% 29.89 in 10.0 mi SSE 6.9 mph - N/A   Clear
5:35 AM 33.8 °F 27.7 °F 30.2 °F 87% 29.89 in 10.0 mi South 6.9 mph - N/A   Clear
5:55 AM 32.0 °F 25.6 °F 28.4 °F 87% 29.89 in 10.0 mi South 6.9 mph - N/A   Clear
6:15 AM 32.0 °F 27.5 °F 30.2 °F 93% 29.89 in 10.0 mi SE 4.6 mph - N/A   Clear
6:35 AM 33.8 °F 28.6 °F 30.2 °F 87% 29.89 in 10.0 mi SE 5.8 mph - N/A   Clear
6:55 AM 33.8 °F 27.7 °F 30.2 °F 87% 29.89 in 10.0 mi SE 6.9 mph - N/A   Clear
7:15 AM 33.8 °F 28.6 °F 30.2 °F 87% 29.88 in 10.0 mi SE 5.8 mph - N/A   Clear
7:35 AM 33.8 °F 30.8 °F 30.2 °F 87% 29.88 in 10.0 mi SE 3.5 mph - N/A   Clear
7:55 AM 33.8 °F 28.6 °F 30.2 °F 87% 29.88 in 10.0 mi SE 5.8 mph - N/A   Clear
8:15 AM 33.8 °F 29.6 °F 30.2 °F 87% 29.89 in 10.0 mi SE 4.6 mph - N/A   Clear
8:35 AM 32.0 °F 26.4 °F 30.2 °F 93% 29.89 in 10.0 mi SSE 5.8 mph - N/A   Clear
8:55 AM 33.8 °F 27.7 °F 32.0 °F 93% 29.89 in 10.0 mi SE 6.9 mph - N/A   Clear
9:15 AM 35.6 °F 30.7 °F 32.0 °F 87% 29.88 in 10.0 mi SE 5.8 mph - N/A   Clear
9:35 AM 35.6 °F 31.7 °F 32.0 °F 87% 29.87 in 10.0 mi ESE 4.6 mph - N/A   Clear
10:15 AM 41.0 °F 39.0 °F 33.8 °F 76% 29.87 in 10.0 mi SE 3.5 mph - N/A   Clear
10:35 AM 44.6 °F 42.2 °F 33.8 °F 66% 29.86 in 10.0 mi SE 4.6 mph - N/A   Clear
10:55 AM 46.4 °F - 35.6 °F 66% 29.87 in 10.0 mi Calm Calm - N/A   Clear
11:15 AM 50.0 °F - 35.6 °F 58% 29.86 in 10.0 mi SSE 5.8 mph - N/A   Clear
11:35 AM 50.0 °F - 35.6 °F 58% 29.85 in 10.0 mi Calm Calm - N/A   Clear
11:55 AM 51.8 °F - 35.6 °F 54% 29.85 in 10.0 mi SSE 11.5 mph - N/A   Clear
12:15 PM 50.0 °F - 35.6 °F 58% 29.83 in 10.0 mi SSE 9.2 mph - N/A   Clear
12:35 PM 51.8 °F - 35.6 °F 54% 29.82 in 10.0 mi SE 9.2 mph - N/A   Clear
12:55 PM 51.8 °F - 35.6 °F 54% 29.81 in 10.0 mi SSE 10.4 mph - N/A   Clear
1:15 PM 53.6 °F - 35.6 °F 51% 29.79 in 10.0 mi SSE 9.2 mph - N/A   Clear
1:35 PM 55.4 °F - 35.6 °F 47% 29.78 in 10.0 mi SE 11.5 mph - N/A   Clear
2:15 PM 59.0 °F - 35.6 °F 42% 29.76 in 10.0 mi SSE 12.7 mph - N/A   Clear
2:55 PM 59.0 °F - 35.6 °F 42% 29.74 in 10.0 mi SSE 16.1 mph - N/A   Clear
3:35 PM 57.2 °F - 35.6 °F 44% 29.72 in 10.0 mi SE 12.7 mph 18.4 mph N/A   Clear
3:55 PM 57.2 °F - 35.6 °F 44% 29.70 in 10.0 mi ESE 10.4 mph - N/A   Clear
4:15 PM 55.4 °F - 35.6 °F 47% 29.69 in 10.0 mi SE 10.4 mph - N/A   Clear
4:35 PM 53.6 °F - 35.6 °F 51% 29.69 in 10.0 mi SE 12.7 mph - N/A   Clear
4:55 PM 51.8 °F - 35.6 °F 54% 29.69 in 10.0 mi SE 11.5 mph - N/A   Clear
5:15 PM 51.8 °F - 35.6 °F 54% 29.68 in 10.0 mi SE 11.5 mph - N/A   Clear
5:35 PM 50.0 °F - 35.6 °F 58% 29.68 in 10.0 mi SE 11.5 mph - N/A   Clear
5:55 PM 50.0 °F - 35.6 °F 58% 29.67 in 10.0 mi SE 11.5 mph - N/A   Clear
6:15 PM 50.0 °F - 35.6 °F 58% 29.66 in 10.0 mi SE 12.7 mph 17.3 mph N/A   Clear
6:35 PM 50.0 °F - 35.6 °F 58% 29.65 in 10.0 mi SE 12.7 mph - N/A   Clear
6:55 PM 50.0 °F - 35.6 °F 58% 29.64 in 10.0 mi SE 13.8 mph - N/A   Clear
7:15 PM 50.0 °F - 35.6 °F 58% 29.64 in 10.0 mi SE 11.5 mph - N/A   Clear
7:35 PM 48.2 °F - 35.6 °F 62% 29.64 in 10.0 mi SE 10.4 mph - N/A   Clear
7:55 PM 46.4 °F 41.9 °F 35.6 °F 66% 29.62 in 10.0 mi SE 9.2 mph - N/A   Clear
8:35 PM 46.4 °F 40.7 °F 35.6 °F 66% 29.61 in 10.0 mi SE 12.7 mph - N/A   Clear
9:15 PM 48.2 °F - 35.6 °F 62% 29.59 in 10.0 mi SSE 10.4 mph - N/A   Clear
9:35 PM 46.4 °F 40.7 °F 35.6 °F 66% 29.59 in 10.0 mi SSE 12.7 mph - N/A   Clear
9:55 PM 46.4 °F 41.1 °F 35.6 °F 66% 29.58 in 10.0 mi SSE 11.5 mph - N/A   Clear
10:15 PM 46.4 °F 41.5 °F 35.6 °F 66% 29.57 in 10.0 mi SSE 10.4 mph - N/A   Clear
10:35 PM 46.4 °F 41.1 °F 35.6 °F 66% 29.57 in 10.0 mi SSE 11.5 mph - N/A   Clear
10:55 PM 44.6 °F 39.2 °F 33.8 °F 66% 29.57 in 10.0 mi SSE 10.4 mph - N/A   Clear
11:15 PM 44.6 °F 39.2 °F 33.8 °F 66% 29.56 in 10.0 mi SSE 10.4 mph - N/A   Clear
11:35 PM 42.8 °F 36.2 °F 33.8 °F 70% 29.55 in 10.0 mi South 12.7 mph - N/A   Clear
11:55 PM 42.8 °F 37.0 °F 33.8 °F 70% 29.55 in 10.0 mi South 10.4 mph - N/A   Clear